Temperature
29 26 25 26 26 27 27 26 26 27 27 26 25 24 25 25 25 24 24 23 23 23 22 22 21 21 20 20 19 19 19 19 18 18 18 18 18 18 18 18 18 18 18 18
26 25 27 28 28 28 27 26 26 26 27 26 24 24 25 25 25 25 24 23 23 23 22 22 22 21 21 20 20 19 19 19 19 19 19 18 18 18 18 18 18 18 18 18
25 26 28 29 28 28 27 26 26 26 26 26 25 24 24 24 25 25 24 24 24 23 23 22 22 21 21 21 20 20 19 19 19 19 18 18 18 18 18 18 18 18 18 18
26 27 29 28 28 28 27 28 28 27 25 23 24 22 23 23 23 24 24 24 24 23 23 23 22 22 21 21 21 20 20 19 19 19 18 18 18 18 18 18 18 18 18 18
26 28 28 28 29 29 27 29 28 27 24 23 23 22 22 22 23 23 24 24 24 24 23 23 23 22 22 22 21 20 20 20 19 19 19 18 18 18 18 18 18 18 18 18
26 28 29 29 29 29 29 27 26 23 22 22 23 23 22 22 23 24 24 25 24 24 23 23 23 23 22 22 21 21 20 20 19 19 19 19 19 19 18 18 18 18 18 18
26 27 29 29 28 28 27 24 23 23 21 22 23 23 22 23 24 25 24 25 24 24 24 23 23 23 22 22 21 21 20 20 20 19 19 19 19 19 19 19 19 19 19 19
24 25 27 28 28 26 26 24 23 23 22 22 23 23 23 25 25 26 26 25 25 24 24 24 23 23 23 22 22 21 21 20 20 20 20 19 19 19 19 19 19 19 19 19
24 25 27 29 29 28 26 24 23 22 22 22 22 23 23 25 25 25 25 25 24 24 24 24 23 23 23 23 22 22 21 21 20 20 20 20 20 19 19 19 19 19 19 19
24 25 26 27 28 27 27 25 22 21 22 22 22 22 22 23 23 24 24 24 24 24 24 24 23 23 23 23 23 22 22 21 21 21 20 20 20 20 20 19 19 19 19 19
24 24 24 25 26 26 26 25 22 20 21 21 21 22 23 22 23 23 23 24 24 24 24 23 23 23 23 23 22 22 22 21 21 21 21 20 20 20 20 19 19 19 19 19
23 21 22 23 25 26 26 25 22 22 21 20 20 21 24 23 23 23 24 24 24 24 24 24 23 23 23 22 22 22 22 22 21 21 21 21 20 20 20 19 19 19 19 19
23 21 21 22 23 24 25 25 23 21 20 20 20 22 23 22 23 24 24 24 24 24 24 23 23 23 23 22 22 22 22 22 22 21 21 21 20 20 20 19 19 19 19 19
23 20 21 22 22 23 25 26 25 22 20 20 21 22 22 22 22 23 24 24 24 24 24 23 23 23 22 22 22 22 22 22 22 21 21 21 20 20 20 20 19 19 19 19
21 21 22 22 24 25 25 26 25 24 22 22 22 22 22 22 22 23 23 23 23 23 23 23 23 23 22 22 22 22 22 22 21 21 21 21 20 20 20 19 19 19 19 19
19 21 22 23 24 24 25 25 26 25 24 23 22 22 21 22 22 22 22 22 22 22 22 22 22 22 22 22 22 22 21 21 21 21 21 21 20 20 20 19 19 19 19 18
19 20 20 21 23 24 23 24 24 24 23 22 22 21 21 21 21 21 22 22 22 21 21 21 22 22 22 21 21 21 21 21 21 20 20 20 20 20 20 19 19 19 19 18
19 18 17 19 21 22 22 22 24 23 22 22 21 21 21 21 21 21 22 21 21 21 21 21 21 21 21 21 21 21 21 21 20 20 20 20 20 20 19 19 19 19 18 18
18 18 18 18 19 20 22 23 23 22 21 21 20 20 20 20 20 20 21 21 21 21 21 21 21 21 21 21 21 20 20 20 20 20 19 19 19 19 19 19 19 18 18 18
18 17 18 18 20 20 20 22 23 22 20 20 20 19 19 20 18 18 20 20 20 20 20 20 20 20 20 20 20 20 19 19 19 19 19 19 19 18 18 18 18 18 18 17
18 18 18 18 18 19 20 22 22 20 19 20 20 19 19 18 18 18 19 19 19 19 20 20 20 20 20 20 20 19 19 19 19 19 18 18 18 18 18 18 17 17 17 17
17 17 17 17 18 18 20 20 20 19 20 20 19 19 19 18 18 19 19 19 19 19 19 19 19 19 19 19 19 19 19 18 18 18 18 18 18 17 17 17 17 17 17 17
17 16 16 16 17 17 19 19 20 20 19 19 19 19 19 18 18 18 18 18 19 19 19 19 18 18 18 18 18 18 18 18 18 18 17 17 17 17 17 17 16 16 16 16
17 16 15 16 16 17 18 19 19 19 19 19 19 19 19 18 18 18 18 18 18 18 18 18 18 18 18 18 18 18 17 17 17 17 17 17 16 16 16 16 16 16 16 16
16 16 15 15 16 17 18 18 18 18 19 19 19 19 18 18 17 17 17 18 18 18 18 17 17 17 17 17 17 17 17 17 16 16 16 16 16 16 16 16 15 15 15 15
15 15 15 15 16 15 16 18 18 18 18 18 18 17 17 17 17 17 17 17 17 17 17 16 16 16 16 16 16 16 16 16 16 16 16 15 15 15 15 15 15 15 15 15
Wind_Speed
3 2 4 8 7 7 5 4 3 4 3 4 4 6 10 12 12 12 11 12 13 13 11 12 12 12 10 8 8 7 7 6 5 4 4 4 3 3 2 3 6 7 7 7
4 6 10 7 5 4 4 3 2 0 2 2 3 4 8 11 13 14 15 14 14 12 10 11 11 11 10 9 8 8 8 7 6 5 4 4 4 3 3 2 3 6 6 6
8 9 7 6 6 4 4 7 6 4 2 2 2 1 5 6 6 7 11 13 14 16 16 14 12 11 10 10 10 9 8 7 6 6 4 4 3 2 1 1 2 3 6 7
7 9 8 8 7 6 5 8 9 7 4 2 2 2 5 6 6 8 9 11 13 14 14 14 14 13 13 12 10 9 8 7 6 6 6 6 5 4 4 3 3 3 5 6
7 7 7 8 10 6 6 7 6 7 5 1 1 3 5 2 6 9 10 12 14 15 16 16 15 15 13 12 10 9 8 7 6 6 7 7 5 4 3 3 3 3 3 4
9 7 7 9 9 5 4 3 4 4 4 1 5 4 5 6 10 10 10 13 13 15 16 15 14 12 11 10 9 9 9 7 7 7 7 7 7 6 5 4 4 3 2 2
8 9 7 5 4 3 2 5 3 2 3 4 3 3 7 8 9 10 11 12 13 15 15 14 14 14 13 12 11 10 10 8 8 8 7 7 7 7 7 6 5 5 3 3
5 9 7 5 7 7 5 9 8 6 5 4 3 4 6 6 4 5 7 8 10 13 14 15 15 15 15 15 13 12 11 9 9 8 7 7 7 6 5 6 5 5 5 4
7 8 6 5 4 7 5 5 8 8 4 2 3 4 5 2 3 5 6 7 9 12 13 14 14 14 13 14 13 13 12 10 9 9 8 6 6 6 6 5 5 4 4 4
8 5 6 6 2 2 6 6 5 6 5 3 3 3 4 4 4 4 6 8 10 10 12 12 13 14 13 13 12 12 11 11 9 9 9 8 7 7 6 5 5 5 5 4
6 5 6 3 2 5 1 3 4 4 6 7 4 6 7 9 8 7 8 8 10 12 12 12 12 13 12 11 11 11 10 9 9 9 8 8 7 6 5 5 6 5 5 5
4 6 3 6 6 4 5 6 7 5 3 5 5 6 4 7 7 7 7 6 7 10 11 11 11 11 11 11 11 11 10 10 10 9 8 7 6 6 6 6 5 5 5 5
4 6 1 6 8 5 1 2 4 5 5 5 5 6 2 2 2 4 5 6 7 7 8 8 9 10 10 11 11 10 10 10 9 8 8 6 6 6 6 6 5 5 5 5
4 5 7 8 8 4 3 3 2 5 4 5 7 7 4 4 4 4 4 5 6 7 9 9 10 10 10 9 10 10 10 10 9 8 8 8 8 7 7 6 6 5 5 5
5 4 3 4 5 3 2 3 1 3 7 7 9 10 10 10 8 5 4 5 6 6 8 10 11 10 9 8 8 8 8 8 9 9 9 9 8 7 6 6 6 5 5 6
4 3 2 1 0 1 2 3 2 2 3 6 7 6 5 4 6 6 5 6 7 7 7 9 9 9 9 8 8 7 7 7 7 8 8 7 7 7 7 6 6 6 5 5
2 3 3 2 2 3 3 3 2 1 1 6 7 6 5 5 5 6 6 7 7 7 7 8 9 9 9 9 8 8 8 7 7 7 7 6 7 7 7 6 5 6 6 5
3 2 3 1 3 2 6 2 3 4 2 2 4 6 7 8 6 4 5 7 6 6 6 6 7 7 6 7 7 6 6 7 7 6 6 6 6 6 6 6 6 6 5 5
5 6 3 3 2 3 5 3 2 3 1 1 4 7 8 9 8 5 3 5 6 5 5 5 6 6 6 6 6 6 5 5 5 5 5 5 5 6 6 7 7 5 5 5
5 6 5 4 4 4 6 5 1 6 1 2 5 7 7 7 5 1 2 6 5 3 4 5 5 5 5 4 5 6 5 4 4 3 4 4 4 5 6 6 5 4 4 5
3 3 3 3 3 5 6 5 2 4 5 3 5 7 6 4 4 4 4 5 5 4 5 6 6 5 4 4 5 5 4 3 3 2 2 2 3 4 4 4 4 3 4 4
2 2 2 3 3 5 6 3 3 5 4 5 6 6 6 7 8 7 7 6 6 5 5 6 6 4 3 4 5 4 3 2 1 1 1 1 2 3 3 3 3 3 3 3
2 4 4 4 4 4 1 2 2 5 7 5 6 7 9 8 7 6 6 5 5 5 4 5 5 4 3 3 4 3 2 2 2 2 1 2 2 2 2 3 4 3 3 3
3 2 3 2 1 2 5 6 6 7 7 7 8 9 9 9 6 6 6 5 4 5 4 4 5 4 3 2 3 2 1 1 2 1 1 2 2 2 1 1 2 2 3 3
3 1 3 2 1 5 6 5 6 7 8 8 7 8 8 8 7 5 5 4 5 5 4 3 4 3 1 1 2 1 1 2 1 1 1 1 1 1 1 1 1 2 3 4
1 2 3 3 4 3 1 2 5 7 7 7 8 7 6 7 7 5 5 4 4 4 4 4 3 2 1 1 1 1 1 1 1 0 1 1 1 1 1 1 1 2 2 2
Wind_Direction
305 56 253 243 218 203 195 189 203 223 173 137 156 164 175 179 174 172 174 172 171 175 171 163 161 158 155 150 145 146 149 155 145 137 137 138 149 159 158 166 165 167 166 162
340 266 242 239 249 210 173 164 196 352 95 117 154 196 197 182 184 180 178 178 175 170 165 166 164 162 162 160 155 152 157 159 159 159 156 155 154 161 168 171 166 171 166 163
221 243 245 257 265 226 194 179 181 170 71 26 116 280 222 208 195 184 180 178 176 175 173 173 169 168 165 165 164 164 165 161 162 155 136 123 105 94 111 158 180 185 172 169
241 248 249 258 255 219 226 196 182 163 130 239 187 209 255 205 209 194 186 181 181 179 174 174 172 172 175 175 170 166 167 166 163 153 147 149 154 167 189 180 183 186 176 174
240 232 232 247 244 223 220 194 170 157 142 119 312 148 274 214 212 209 193 185 185 182 178 177 177 177 178 175 171 171 169 171 169 162 162 158 161 173 169 160 168 187 190 183
246 249 219 227 245 216 173 102 64 57 85 136 237 177 246 218 212 206 195 189 186 185 181 178 175 171 172 171 171 171 170 175 172 168 168 167 166 167 160 167 176 189 192 196
282 277 260 228 246 279 120 104 73 5 8 242 238 186 238 237 218 203 192 189 185 183 180 176 173 173 174 173 177 176 174 178 180 175 176 178 173 171 177 179 182 182 183 194
225 270 259 233 197 200 200 153 164 184 202 250 290 220 246 246 206 184 176 176 178 179 180 179 179 178 178 179 179 178 178 181 183 182 185 182 178 177 184 184 181 187 192 198
192 246 273 260 219 175 195 188 171 147 157 158 263 273 315 341 115 136 144 161 171 177 178 178 177 177 177 178 180 179 180 181 185 186 185 186 185 184 187 186 182 190 193 196
175 226 269 269 314 284 178 165 104 121 153 201 252 235 225 232 202 167 171 176 172 172 175 177 179 178 177 178 179 177 179 185 187 188 192 192 193 193 192 182 185 187 190 187
164 178 287 331 208 223 210 129 118 131 153 156 201 256 218 202 200 177 182 184 174 169 173 177 180 180 177 174 177 176 180 183 186 188 191 192 196 196 188 189 194 194 194 188
171 146 235 265 261 226 192 189 153 154 207 161 162 254 241 189 199 176 175 179 171 165 168 170 174 173 174 176 179 181 183 186 191 190 189 191 191 189 190 197 203 197 194 196
134 125 132 330 334 348 307 226 164 146 140 160 165 247 280 175 201 186 169 167 162 160 160 162 165 168 174 178 181 183 186 191 191 187 188 190 189 189 193 196 194 189 188 192
118 118 161 194 220 231 257 268 174 129 157 184 196 210 243 210 192 187 166 166 169 162 159 161 165 165 171 176 179 181 187 191 185 181 185 191 197 195 193 191 191 192 191 194
87 133 172 200 213 192 228 258 236 180 184 180 201 198 209 197 182 168 152 142 136 133 144 157 163 164 166 167 171 175 182 186 183 181 187 196 197 192 189 190 193 196 198 200
55 120 92 9 42 58 320 281 217 211 172 167 165 206 218 178 147 130 130 135 129 131 139 148 153 153 159 163 171 172 176 177 171 178 191 195 191 189 192 194 192 192 201 201
37 91 86 273 313 37 317 280 199 183 161 158 176 204 165 138 145 147 138 135 141 149 150 153 153 158 165 171 171 172 178 173 171 181 190 189 188 189 193 193 189 197 205 202
140 107 126 137 57 214 245 254 125 115 80 96 143 158 155 150 140 115 123 128 134 140 144 148 151 154 160 160 158 159 157 160 169 181 189 192 190 198 200 192 199 206 204 205
149 141 123 124 161 267 295 302 151 120 24 30 131 144 133 122 95 59 59 109 128 138 137 132 135 141 137 143 149 139 141 147 156 175 186 191 193 196 201 204 209 207 200 207
65 106 121 129 147 219 254 284 233 102 352 301 129 142 141 122 119 161 75 90 88 97 114 115 107 107 115 124 128 129 137 136 154 180 191 188 188 196 208 211 209 204 200 209
25 43 122 154 185 249 268 292 55 124 218 225 138 137 129 116 140 147 107 88 88 84 101 103 101 105 117 123 120 122 131 157 187 178 162 173 195 206 209 208 206 202 202 205
155 136 178 150 172 247 301 25 137 189 169 126 110 111 105 109 111 112 106 94 81 78 93 104 103 101 99 110 119 125 154 188 170 165 180 215 231 229 221 212 214 206 199 207
157 183 175 174 206 246 329 127 156 133 122 117 118 119 119 113 116 118 113 102 89 82 85 101 108 97 76 86 116 138 199 186 166 177 229 251 255 252 231 214 214 212 206 211
327 35 89 73 2 73 70 68 69 91 104 112 116 119 116 113 116 115 108 101 92 82 83 89 95 94 72 63 94 135 182 155 148 181 234 253 243 257 263 227 205 210 220 222
277 37 86 111 129 53 44 71 84 82 90 94 98 109 114 114 110 105 101 91 84 75 63 78 90 91 84 68 65 53 60 101 118 186 223 243 215 214 222 205 207 216 231 221
301 146 143 195 203 143 166 135 109 100 96 99 100 94 98 115 118 106 93 84 87 75 57 58 57 72 77 63 39 12 23 73 111 208 242 218 211 210 204 197 297 310 255 259
Height
1485 1492 1498 1493 1491 1494 1497 1503 1507 1501 1495 1501 1507 1509 1507 1507 1509 1511 1513 1515 1516 1518 1521 1522 1524 1525 1526 1526 1527 1528 1529 1530 1532 1533 1534 1536 1537 1539 1540 1541 1542 1543 1544 1545
1491 1495 1486 1483 1484 1488 1494 1503 1504 1499 1496 1502 1509 1509 1505 1506 1506 1506 1509 1511 1514 1517 1520 1522 1523 1524 1525 1526 1527 1528 1529 1530 1531 1533 1534 1536 1537 1539 1540 1541 1542 1543 1544 1545
1493 1486 1480 1482 1486 1490 1495 1500 1501 1502 1500 1501 1509 1514 1509 1505 1505 1506 1507 1509 1512 1514 1516 1519 1521 1523 1524 1525 1526 1527 1528 1529 1531 1533 1534 1536 1537 1538 1540 1540 1541 1543 1544 1545
1485 1477 1479 1483 1485 1486 1497 1487 1489 1496 1509 1520 1515 1532 1514 1506 1505 1505 1506 1507 1510 1512 1514 1517 1519 1521 1522 1524 1526 1527 1528 1529 1531 1532 1534 1535 1536 1537 1538 1540 1541 1542 1543 1545
1483 1476 1478 1482 1480 1479 1487 1481 1486 1493 1506 1519 1518 1528 1520 1508 1508 1503 1502 1503 1506 1509 1511 1514 1516 1518 1521 1523 1525 1527 1528 1529 1530 1532 1533 1534 1536 1537 1538 1540 1541 1542 1543 1544
1475 1470 1471 1472 1470 1473 1478 1486 1494 1503 1514 1531 1520 1526 1524 1509 1501 1498 1498 1500 1503 1506 1508 1511 1515 1517 1520 1522 1524 1526 1527 1528 1529 1531 1532 1533 1535 1536 1537 1539 1540 1541 1542 1543
1479 1471 1466 1466 1474 1475 1479 1502 1524 1530 1538 1533 1515 1519 1516 1495 1490 1491 1493 1496 1499 1502 1506 1509 1512 1515 1517 1520 1522 1524 1526 1527 1528 1529 1531 1532 1534 1535 1536 1537 1539 1540 1541 1542
1492 1489 1469 1464 1469 1479 1482 1495 1521 1535 1539 1531 1517 1519 1503 1486 1484 1486 1489 1493 1496 1499 1503 1506 1509 1511 1514 1517 1520 1522 1524 1525 1527 1528 1530 1531 1533 1534 1535 1536 1537 1538 1539 1541
1488 1486 1463 1460 1460 1467 1479 1489 1490 1511 1522 1531 1525 1511 1497 1485 1484 1485 1488 1491 1494 1496 1500 1503 1506 1509 1512 1514 1517 1519 1521 1523 1525 1527 1528 1530 1531 1532 1534 1535 1536 1537 1538 1539
1472 1481 1467 1460 1459 1462 1468 1476 1495 1511 1528 1536 1526 1517 1511 1496 1490 1486 1486 1489 1490 1493 1497 1500 1504 1506 1509 1512 1515 1517 1519 1521 1523 1525 1527 1528 1530 1531 1532 1534 1535 1535 1536 1537
1465 1480 1476 1468 1469 1472 1472 1479 1490 1504 1510 1528 1534 1521 1489 1489 1486 1484 1484 1485 1486 1489 1493 1496 1500 1504 1507 1510 1513 1515 1518 1519 1521 1523 1525 1526 1528 1529 1531 1532 1533 1534 1534 1535
1462 1477 1487 1476 1464 1460 1464 1472 1485 1504 1510 1514 1521 1515 1479 1480 1480 1481 1483 1484 1485 1487 1490 1494 1498 1502 1505 1508 1511 1513 1515 1517 1519 1521 1523 1525 1526 1527 1528 1529 1530 1531 1532 1532
1460 1477 1493 1491 1482 1469 1468 1468 1474 1485 1500 1511 1518 1509 1479 1479 1479 1480 1481 1482 1483 1486 1489 1493 1497 1501 1504 1506 1508 1511 1513 1515 1517 1519 1520 1522 1523 1525 1525 1526 1527 1528 1529 1530
1453 1473 1485 1493 1487 1476 1473 1468 1469 1482 1500 1505 1501 1495 1485 1480 1479 1479 1480 1482 1483 1484 1486 1490 1494 1498 1501 1504 1506 1508 1510 1513 1514 1516 1517 1519 1520 1521 1523 1524 1525 1525 1526 1526
1455 1470 1470 1470 1466 1465 1466 1465 1466 1474 1482 1491 1489 1486 1480 1477 1476 1477 1479 1481 1483 1483 1485 1489 1492 1495 1499 1502 1504 1506 1508 1510 1512 1513 1514 1515 1517 1519 1520 1521 1522 1523 1523 1523
1459 1468 1469 1471 1464 1465 1467 1463 1464 1467 1470 1475 1478 1481 1472 1473 1474 1476 1479 1481 1482 1484 1486 1488 1491 1493 1496 1499 1502 1504 1506 1507 1509 1510 1512 1513 1515 1516 1517 1518 1519 1519 1520 1520
1464 1469 1477 1481 1470 1468 1478 1469 1466 1467 1466 1470 1478 1475 1471 1474 1475 1476 1477 1479 1481 1484 1486 1488 1489 1491 1494 1496 1499 1501 1503 1505 1506 1507 1509 1510 1511 1512 1513 1514 1515 1516 1516 1516
1463 1471 1480 1484 1480 1492 1478 1462 1460 1463 1465 1465 1466 1468 1468 1471 1474 1476 1477 1478 1480 1483 1485 1487 1489 1491 1493 1495 1497 1498 1500 1502 1503 1504 1505 1506 1507 1508 1509 1510 1511 1511 1512 1512
1455 1466 1479 1488 1491 1486 1472 1462 1462 1466 1471 1466 1467 1468 1470 1471 1474 1478 1479 1479 1481 1483 1485 1487 1489 1491 1492 1494 1496 1497 1498 1499 1500 1501 1502 1503 1504 1504 1505 1506 1507 1507 1508 1508
1455 1461 1476 1485 1490 1492 1477 1461 1457 1462 1476 1467 1466 1468 1470 1470 1479 1481 1480 1480 1482 1484 1486 1487 1488 1490 1491 1493 1494 1495 1496 1497 1497 1498 1499 1499 1500 1501 1501 1502 1503 1503 1504 1504
1469 1472 1477 1484 1487 1481 1466 1459 1458 1477 1478 1467 1466 1467 1469 1471 1475 1479 1480 1482 1483 1485 1486 1487 1488 1489 1490 1491 1492 1493 1494 1494 1495 1496 1496 1496 1496 1497 1498 1498 1499 1500 1500 1500
1474 1478 1481 1483 1488 1485 1463 1460 1465 1467 1464 1465 1466 1468 1470 1472 1474 1477 1480 1483 1484 1485 1485 1486 1487 1488 1489 1490 1490 1491 1492 1492 1493 1493 1493 1493 1493 1494 1494 1495 1495 1495 1495 1495
1469 1470 1473 1476 1478 1468 1462 1461 1462 1461 1463 1465 1467 1468 1471 1472 1475 1478 1480 1482 1484 1486 1486 1486 1486 1487 1488 1489 1489 1490 1491 1491 1491 1491 1490 1490 1490 1491 1491 1491 1491 1491 1491 1491
1467 1464 1468 1472 1471 1467 1465 1464 1464 1464 1465 1467 1468 1470 1472 1473 1476 1478 1480 1482 1483 1485 1485 1486 1487 1487 1487 1488 1488 1489 1489 1489 1489 1488 1488 1487 1487 1487 1487 1487 1487 1487 1487 1487
1468 1467 1470 1473 1471 1469 1468 1468 1468 1469 1469 1470 1471 1472 1473 1476 1478 1479 1479 1480 1481 1483 1485 1485 1486 1486 1487 1487 1487 1487 1487 1487 1486 1486 1485 1485 1484 1484 1484 1484 1484 1483 1483 1483
1467 1469 1471 1473 1469 1469 1470 1469 1470 1470 1471 1472 1473 1475 1477 1479 1480 1481 1481 1481 1481 1482 1484 1485 1485 1485 1485 1485 1485 1485 1485 1485 1484 1483 1482 1482 1482 1481 1481 1480 1480 1480 1479 1479